Location: Newark
(35.6799°N, 139.7636°E)
Time: 09:27:03
(UTC+00:00)

Explorer 7 - Pass Details

Date: 08 December 2019
Orbit: 485 x 679 km, 50.3° (Epoch: 21 January)

Event Time Altitude Azimuth Distance (km) Brightness Sun altitude
Rises 11:43:13 0° 314° (NW) 3,023 - -51.1°
Reaches altitude 10° 11:46:16 10° 332° (NNW) 2,090 - -51.8°
Maximum altitude 11:49:39 19° 17° (NNE) 1,568 - -52.4°
Drops below altitude 10° 11:52:57 10° 61° (ENE) 2,024 - -53.1°
Sets 11:55:50 0° 80° (E) 2,894 - -53.7°
